Weather History for KDEC - November, 2013

Change the Weather History Date:

Friday, November 15, 2013

  Actual Average Record
Temperature  
Mean Temperature 46 °F 43 °F  
Max Temperature 53 °F 52 °F - ()
Min Temperature 39 °F 35 °F - ()
Degree Days  
Heating Degree Days 19 22  
Month to date heating degree days 321 280  
Since 1 July heating degree days 710 698  
Cooling Degree Days 0 0  
Month to date cooling degree days 0 0  
Year to date cooling degree days 1079 1048  
Moisture  
Dew Point 32 °F    
Average Humidity 66    
Maximum Humidity 83    
Minimum Humidity 49    
Precipitation  
Precipitation 0.00 in 0.12 in - ()
Month to date precipitation 0.41 1.67  
Year to date precipitation 31.36 34.15  
Sea Level Pressure  
Sea Level Pressure 30.03 in    
Wind  
Wind Speed 11 mph (South)    
Max Wind Speed 17 mph    
Max Gust Speed 24 mph    
Visibility 10 miles    
Events      
T = Trace of Precipitation, MM = Missing Value Source: NWS Daily Summary

Daily Weather History Graph

Daily Weather History Graph

Search for Another Location

Airport or City:

Trip Planner

Search our weather history database for the weather conditions in past years. The results will help you decide how hot, cold, wet, or windy it might be!

Date:

Astronomy

Nov. 15, 2013 Rise Set
Actual Time 6:40 AM CST 4:39 PM CST
Civil Twilight 6:11 AM CST 5:08 PM CST
Nautical Twilight 5:38 AM CST 5:40 PM CST
Astronomical Twilight 5:06 AM CST 6:12 PM CST
Moon 3:36 PM CST (11/15) 4:37 AM CST (11/15)
Length of Visible Light 10h 56m
Length of Day
9h 58m
Waxing Gibbous, 96% of the Moon is Illuminated
Nov 15
Waxing Gibbous
Nov 17
Full
Nov 25
Last Quarter
Dec 2
New
Dec 9
First Quarter

Hourly Weather History & Observations

Time (CST) Temp. Windchill Dew Point Humidity Pressure Visibility Wind Dir Wind Speed Gust Speed Precip Events Conditions
12:54 AM 43.0 °F 36.8 °F 27.0 °F 53% 30.06 in 10.0 mi SSW 11.5 mph - N/A   Clear
1:54 AM 41.0 °F 34.3 °F 27.0 °F 57% 30.06 in 10.0 mi SSW 11.5 mph - N/A   Clear
2:54 AM 42.1 °F 36.6 °F 27.0 °F 55% 30.05 in 10.0 mi SSW 9.2 mph - N/A   Clear
3:54 AM 39.9 °F 33.9 °F 27.0 °F 60% 30.05 in 10.0 mi SSW 9.2 mph - N/A   Clear
4:54 AM 39.9 °F 35.1 °F 27.0 °F 60% 30.05 in 10.0 mi South 6.9 mph - N/A   Clear
5:54 AM 42.1 °F 35.7 °F 26.1 °F 53% 30.05 in 10.0 mi SSW 11.5 mph - N/A   Mostly Cloudy
6:54 AM 41.0 °F 34.7 °F 27.0 °F 57% 30.06 in 10.0 mi SSW 10.4 mph - N/A   Clear
7:54 AM 42.1 °F 36.6 °F 28.0 °F 58% 30.07 in 10.0 mi SSW 9.2 mph - N/A   Clear
8:54 AM 48.0 °F - 30.0 °F 50% 30.06 in 10.0 mi SW 16.1 mph - N/A   Overcast
9:54 AM 48.0 °F - 30.0 °F 50% 30.07 in 10.0 mi SW 13.8 mph - N/A   Unknown
10:54 AM 50.0 °F - 33.1 °F 52% 30.06 in 10.0 mi SW 11.5 mph - N/A   Overcast
11:54 AM 51.1 °F - 34.0 °F 52% 30.05 in 10.0 mi SW 10.4 mph - N/A   Overcast
12:54 PM 51.1 °F - 34.0 °F 52% 30.03 in 10.0 mi SSW 10.4 mph - N/A   Overcast
1:54 PM 52.0 °F - 34.0 °F 50% 30.01 in 10.0 mi South 12.7 mph - N/A   Mostly Cloudy
2:54 PM 52.0 °F - 33.1 °F 49% 30.00 in 10.0 mi South 9.2 mph - N/A   Overcast
3:54 PM 52.0 °F - 33.1 °F 49% 30.00 in 10.0 mi South 10.4 mph - N/A   Overcast
4:54 PM 50.0 °F - 34.0 °F 54% 30.00 in 10.0 mi SSE 5.8 mph - N/A   Overcast
5:54 PM 50.0 °F - 33.1 °F 52% 30.00 in 10.0 mi SSE 8.1 mph - N/A   Overcast
6:54 PM 50.0 °F - 34.0 °F 54% 30.01 in 10.0 mi South 11.5 mph - N/A   Overcast
7:54 PM 46.0 °F 41.0 °F 35.1 °F 66% 30.01 in 10.0 mi SSE 10.4 mph - N/A   Clear
8:54 PM 45.0 °F 38.9 °F 36.0 °F 71% 29.99 in 10.0 mi SSE 12.7 mph - N/A   Clear
9:54 PM 45.0 °F 37.9 °F 37.0 °F 74% 29.98 in 10.0 mi South 16.1 mph - N/A   Clear
10:54 PM 45.0 °F 38.5 °F 39.0 °F 80% 30.00 in 10.0 mi South 13.8 mph 23.0 mph N/A   Clear
11:23 PM 44.6 °F 38.1 °F 39.2 °F 81% 29.98 in 10.0 mi South 13.8 mph - N/A   Mostly Cloudy
11:54 PM 46.0 °F 39.3 °F 41.0 °F 83% 29.99 in 10.0 mi South 16.1 mph - N/A   Overcast